Flag for Canada Weather past 2 weeks in Fredericton, New Brunswick, Canada

Now
70 °F

Sunny.


Feels Like: 70 °F
Forecast: 56 / 78 °F
Wind: 9 mph from Southwest

Location: Fredericton

Current Time: Aug 2, 2015 at 11:26:58 AM

Latest Report: Aug 2, 2015 at 11:00 AM


Visibility: 9 mi

Pressure: 29.80 "Hg

Humidity: 69%

Dew point: 59 °F

Location of FrederictonLocation

Historic Weather in Fredericton — Graph

°F

Fredericton temperature yesterday

Maximum temperature yesterday: 84 °F (at 2:00 PM)
Minimum temperature yesterday: 57 °F (at 4:00 AM)
Average temperature yesterday: 67 °F

Past Weeks' High & Low Weather Summary

 TemperatureHumidityPressure
High84 °F (Jul 30, 3:00 PM)100% (Jul 19, 5:46 AM)30.09 "Hg (Jul 19, 5:46 AM)
Low50 °F (Jul 26, 4:00 AM)37% (Jul 29, 5:00 PM)29.52 "Hg (Jul 22, 4:00 PM)
Average65 °F81%29.82 "Hg
* Reported Jul 18 10:00 AM — Aug 2 10:00 AM, Fredericton, Weather by CustomWeather, © 2015

Note: Actual official high and low records may vary slightly from our data, if they occured in-between our weather recording intervals... More about our weather records

Advertising

Fredericton weather history for previous 24 hours

 ConditionsComfort  
Time TempWeatherWind HumidityBarometerVisibility
10:00 AM
Sun, Aug 2
68 °FSunny.8 mph73%29.79 "Hg9 mi
9:00 AM63 °FSunny.3 mph88%29.78 "Hg9 mi
8:00 AM59 °FSunny.7 mph94%29.77 "Hg9 mi
7:00 AM54 °FFog.5 mph100%29.75 "Hg1 mi
6:47 AM54 °FFog.3 mph94%29.75 "Hg1 mi
6:00 AM55 °FFog.5 mph94%29.74 "Hg1 mi
5:58 AM55 °FFog.5 mph94%29.74 "Hg1 mi
5:00 AM54 °FFog.5 mph94%29.72 "Hg1 mi
4:00 AM57 °FFog.2 mph94%29.72 "Hg1 mi
3:47 AM55 °FFog.5 mph100%29.72 "Hg2 mi
3:00 AM57 °FFog.3 mph100%29.71 "Hg5 mi
2:45 AM57 °FFog.3 mph94%29.71 "Hg5 mi
2:02 AM59 °FFog.8 mph94%29.69 "Hg6 mi
1:00 AM57 °FFog.5 mph100%29.70 "Hg1 mi
12:04 AM59 °FFog.5 mph100%29.70 "Hg1 mi
11:59 PM
Sat, Aug 1
59 °FFog.3 mph100%29.70 "Hg1 mi
11:00 PM61 °FFog.3 mph94%29.70 "Hg1 mi
10:52 PM61 °FFog.3 mph100%29.70 "Hg2 mi
10:00 PM59 °FFog.3 mph100%29.70 "Hg1 mi
9:00 PM63 °FSunny.5 mph94%29.68 "Hg9 mi
8:00 PM64 °FPassing clouds.3 mph94%29.66 "Hg9 mi
7:00 PM64 °FLight rain. Mostly cloudy.2 mph94%29.66 "Hg9 mi
6:04 PM64 °FStrong thunderstorms. Fog.3 mph88%29.68 "Hg4 mi
5:00 PM81 °FThundershowers. Scattered clouds.16 mph45%29.59 "Hg9 mi
4:00 PM75 °FLight rain. Cloudy.15 mph65%29.63 "Hg9 mi
3:00 PM81 °FScattered clouds.18 mph45%29.61 "Hg9 mi
2:00 PM84 °FSunny.17 mph43%29.64 "Hg9 mi
1:00 PM82 °FBroken clouds.14 mph42%29.67 "Hg9 mi
12:00 PM82 °FPassing clouds.15 mph42%29.68 "Hg9 mi
11:00 AM79 °FSunny.8 mph51%29.69 "Hg9 mi
Weather by CustomWeather, © 2015

See weather overviewHow to use our weather pages